Location: Poughquag
(41.6090°N, 73.6820°W)
Time: 03:21:29
(UTC-04:00)

Transit 4A - Pass Details

Date: 03 June 2020
Orbit: 866 x 978 km, 66.8° (Epoch: 06 July)

Event Time Altitude Azimuth Distance (km) Brightness Sun altitude
Rises 01:57:33 0° 217° (SW) 3,435 - -24.3°
Reaches altitude 10° 02:00:02 10° 220° (SW) 2,505 - -24.2°
Exits shadow 02:04:15 48° 242° (WSW) 1,132 8.0 -23.9°
Maximum altitude 02:05:46 66° 302° (WNW) 951 7.9 -23.8°
Drops below altitude 10° 02:11:40 10° 25° (NNE) 2,563 11.3 -23.5°
Sets 02:14:13 0° 29° (NNE) 3,522 12.3 -23.3°
